Погода в Носке

Россия / Красноярский край     70°09′50″N   82°20′41″E
темп.,
°C
ветер,
м/с
пор.,
м/с
влажн.,
%
обл.,
%
осадки,
мм/ч
давл.,
гПа
погр.,
м
3 марта, ср
ср301:00−31юв713900 0.0 1018289
04:00−32юв814890 0.0 1018291
07:00−31юв814880 0.0 1018302
10:00−31юв814874 0.0 1017306
13:00−30юв815865 0.0 1017334
16:00−28юв8138686 0.0 1017391
19:00−28юв8148786 0.0 1017362
22:00−29юв7148659 0.0 1016323
4 марта, чт
чт401:00−28юв8158174 0.0 1016367
04:00−27вюв8148097 0.0 1014377
07:00−26вюв8157898 0.0 1014442
10:00−24вюв81378100 0.0 1013497
13:00−23вюв81387100 0.0 1012554
16:00−22вюв71190100 0.1 1011585
19:00−22вюв71195100 0.1 1011540
22:00−22вюв71197100 0.2 1011489
5 марта, пт
пт501:00−22вюв61196100 0.4 1010484
04:00−21вюв61194100 0.1 1010456
07:00−21вюв61195100 0.1 1009443
10:00−21вюв61195100 0.1 1009411
13:00−20вюв61094100 0.1 1009429
16:00−23в61096100 0.0 1009263
19:00−26в599495 0.1 1010176
22:00−28всв599477 0.0 1009145
6 марта, сб
сб601:00−30всв479364 0.0 1009116
04:00−32всв479143 0.0 100995
07:00−33св478859 0.0 100987
10:00−34св479065 0.0 1009116
13:00−32св589153 0.0 1008190
16:00−32св589248 0.0 1008198
19:00−35св479356 0.0 1008129
22:00−36св479434 0.0 1008111
7 марта, вс
вс701:00−36св479424 0.0 1007109
04:00−37ссв579522 0.0 1006116
07:00−37ссв579515 0.0 1006122
10:00−36ссв599611 0.0 1006145
13:00−33ссв58935 0.0 1006223
16:00−33ссв599446 0.0 1006220
19:00−35ссв599670 0.0 1006141
22:00−36ссв5797100 0.0 1006126